Location: Kawakawa
(35.3830°S, 174.0670°E)
Time: 07:03:02
(UTC+13:00)

A-11 Canister half - Pass Details

Date: 12 December 2019
Orbit: 1525 x 1684 km, 47.3° (Epoch: 27 January)

Event Time Altitude Azimuth Distance (km) Brightness Sun altitude
Rises 22:26:52 0° 248° (WSW) 4,691 12.7 -19.0°
Reaches altitude 10° 22:30:11 10° 240° (WSW) 3,710 12.1 -19.4°
Maximum altitude 22:38:56 42° 171° (S) 2,101 10.0 -20.6°
Drops below altitude 10° 22:47:49 10° 102° (ESE) 3,772 10.8 -21.7°
Sets 22:51:13 0° 95° (E) 4,775 11.3 -22.1°
